Weather History for Marion, OH

Change the Weather History Date:

Friday, December 13, 2013

  Actual Average (KDLZ) Record (KDLZ)
Temperature  
Mean Temperature 19 °F -  
Max Temperature 28 °F 42 °F 60 °F (1991)
Min Temperature 10 °F 26 °F -8 °F (1962)
Degree Days  
Heating Degree Days 46    
Moisture  
Dew Point 12 °F    
Average Humidity 68    
Maximum Humidity 77    
Minimum Humidity 55    
Precipitation  
Precipitation 0.00 in - - ()
Sea Level Pressure  
Sea Level Pressure 30.26 in    
Wind  
Wind Speed 6 mph (South)    
Max Wind Speed 12 mph    
Max Gust Speed -    
Visibility 9 miles    
Events      
Averages and records for this station are not official NWS values.
T = Trace of Precipitation, MM = Missing Value Source: NWS Daily Summary

Daily Weather History Graph

Daily Weather History Graph

Search for Another Location

Airport:

Trip Planner

Search our weather history database for the weather conditions in past years. The results will help you decide how hot, cold, wet, or windy it might be!

Date:

Astronomy

Dec. 13, 2013 Rise Set
Actual Time 7:47 AM EST 5:05 PM EST
Civil Twilight 7:16 AM EST 5:36 PM EST
Nautical Twilight 6:42 AM EST 6:10 PM EST
Astronomical Twilight 6:09 AM EST 6:44 PM EST
Moon 2:48 PM EST (12/13) 4:08 AM EST (12/13)
Length of Visible Light 10h 19m
Length of Day
9h 18m
Waxing Gibbous, 88% of the Moon is Illuminated
Dec 13
Waxing Gibbous
Dec 17
Full
Dec 25
Last Quarter
Jan 1
New
Jan 7
First Quarter

Hourly Weather History & Observations

Time (EST) Temp. Windchill Dew Point Humidity Pressure Visibility Wind Dir Wind Speed Gust Speed Precip Events Conditions
12:53 AM 12.0 °F 2.7 °F 1.9 °F 64% 30.30 in 10.0 mi SSW 5.8 mph - N/A   Scattered Clouds
1:53 AM 12.9 °F 3.8 °F 3.0 °F 65% 30.30 in 10.0 mi South 5.8 mph - N/A   Clear
2:53 AM 10.9 °F 0.2 °F 1.9 °F 67% 30.31 in 10.0 mi South 6.9 mph - N/A   Clear
3:53 AM 10.0 °F -0.9 °F 1.9 °F 70% 30.30 in 10.0 mi South 6.9 mph - N/A   Clear
4:53 AM 12.0 °F 1.5 °F 3.0 °F 67% 30.27 in 10.0 mi South 6.9 mph - N/A   Overcast
5:53 AM 14.0 °F 2.0 °F 5.0 °F 67% 30.26 in 10.0 mi South 9.2 mph - N/A   Mostly Cloudy
6:53 AM 14.0 °F 3.9 °F 5.0 °F 67% 30.28 in 10.0 mi South 6.9 mph - N/A   Partly Cloudy
7:53 AM 16.0 °F 4.4 °F 8.1 °F 71% 30.28 in 10.0 mi SSW 9.2 mph - N/A   Overcast
8:53 AM 16.0 °F 7.4 °F 9.0 °F 74% 30.29 in 9.0 mi South 5.8 mph - N/A   Partly Cloudy
9:53 AM 21.0 °F 11.4 °F 12.0 °F 68% 30.30 in 10.0 mi SW 8.1 mph - N/A   Mostly Cloudy
10:53 AM 25.0 °F 18.1 °F 10.9 °F 55% 30.30 in 10.0 mi WSW 5.8 mph - N/A   Clear
11:53 AM 26.1 °F 19.4 °F 14.0 °F 60% 30.27 in 10.0 mi South 5.8 mph - N/A   Clear
12:53 PM 27.0 °F 19.5 °F 14.0 °F 58% 30.26 in 10.0 mi South 6.9 mph - N/A   Clear
1:53 PM 27.0 °F 18.7 °F 15.1 °F 61% 30.24 in 9.0 mi SSW 8.1 mph - N/A   Clear
2:53 PM 27.0 °F 18.7 °F 16.0 °F 63% 30.23 in 8.0 mi SSW 8.1 mph - N/A   Clear
3:53 PM 28.0 °F 18.1 °F 17.1 °F 63% 30.23 in 8.0 mi SSW 11.5 mph - N/A   Clear
4:53 PM 27.0 °F 20.5 °F 18.0 °F 69% 30.23 in 8.0 mi South 5.8 mph - N/A   Clear
5:53 PM 27.0 °F 20.5 °F 18.0 °F 69% 30.23 in 9.0 mi South 5.8 mph - N/A   Clear
6:53 PM 26.1 °F - 18.0 °F 71% 30.24 in 9.0 mi Calm Calm - N/A   Clear
7:53 PM 26.1 °F - 18.0 °F 71% 30.26 in 8.0 mi Calm Calm - N/A   Partly Cloudy
8:53 PM 24.1 °F 18.2 °F 18.0 °F 77% 30.25 in 8.0 mi East 4.6 mph - N/A   Clear
9:53 PM 27.0 °F - 19.9 °F 75% 30.25 in 8.0 mi Calm Calm - N/A   Overcast
10:53 PM 27.0 °F 21.6 °F 19.9 °F 75% 30.22 in 8.0 mi ESE 4.6 mph - N/A   Overcast
11:53 PM 28.0 °F 22.8 °F 21.0 °F 75% 30.23 in 8.0 mi SSW 4.6 mph - N/A   Overcast